This demonstration page uses our WeatherBlox Daily Observations layout. Learn more.

Left ArrowRight Arrow

39.01783, -85.05884

Hourly Observations for April 5, 2019

Temp ( °F °C ) Dew Point ( °F °C ) Humidity (%) Winds ( mph kmh ) Pressure ( in mb ) Visibility ( mi km ) Precip ( " mm )
12:52 am 00:52 Cloudy 56 13.3 37 2.8 49 49 ENE 9 15 30.12 1020 10 16 N/A
1:52 am 01:52 Cloudy with Light Rain 53 11.7 41 5 64 64 E 7 11 30.12 1020 10 16 N/A
2:52 am 02:52 Cloudy with Light Rain 52 11.1 42 5.6 69 69 ESE 7 11 30.11 1020 10 16 0.01 0.25
3:52 am 03:52 Cloudy with Light Rain 50 10 45 7.2 83 83 E 7 11 30.09 1019 9 14 0.03 0.76
5:52 am 05:52 Cloudy with Light Rain 49 9.4 45 7.2 86 86 E 12 19 30.06 1018 9 14 0.01 0.25
6:52 am 06:52 Cloudy 49 9.4 45 7.2 86 86 ENE 9 15 30.06 1018 10 16 N/A
7:52 am 07:52 Cloudy 49 9.4 45 7.2 86 86 E 8 13 30.06 1018 10 16 N/A
8:52 am 08:52 Cloudy with Light Rain 49 9.4 46 7.8 90 90 ESE 6 9 30.06 1018 6 10 N/A
9:52 am 09:52 Cloudy 50 10 46 7.8 86 86 ESE 9 15 30.06 1018 10 16 N/A
10:32 am 10:32 Cloudy 50 10 46 7.8 86 86 E 6 9 30.08 1019 10 16 N/A
10:52 am 10:52 Cloudy 50 10 47 8.3 89 89 ENE 5 7 30.07 1018 10 16 N/A
11:52 am 11:52 Cloudy 52 11.1 48 8.9 86 86 SE 8 13 30.06 1018 8 13 N/A
12:19 pm 12:19 Cloudy 53 11.7 48 8.9 83 83 SSE 9 15 30.07 1018 8 13 N/A
12:52 pm 12:52 Cloudy 53 11.7 49 9.4 86 86 SSE 7 11 30.07 1018 8 13 N/A
1:38 pm 13:38 Cloudy 55 12.8 50 10 83 83 S 3 6 30.07 1018 9 14 N/A
1:52 pm 13:52 Cloudy 55 12.8 50 10 83 83 SSE 5 7 30.06 1018 9 14 N/A
2:52 pm 14:52 Cloudy 56 13.3 49 9.4 77 77 W 3 6 30.07 1018 9 14 N/A
3:29 pm 15:29 Cloudy 57 13.9 49 9.4 74 74 W 6 9 30.08 1019 10 16 N/A
3:52 pm 15:52 Cloudy 57 13.9 49 9.4 74 74 W 5 7 30.06 1018 9 14 N/A
4:52 pm 16:52 Cloudy 58 14.4 49 9.4 72 72 NW 5 7 30.06 1018 10 16 N/A
5:52 pm 17:52 Cloudy 58 14.4 48 8.9 70 70 N 5 7 30.06 1018 10 16 N/A
6:52 pm 18:52 Mostly Cloudy 58 14.4 48 8.9 70 70 N 3 6 30.06 1018 10 16 N/A
7:52 pm 19:52 Mostly Cloudy 56 13.3 48 8.9 75 75 N N/A 30.07 1018 10 16 N/A
8:52 pm 20:52 Cloudy 56 13.3 48 8.9 75 75 N N/A 30.08 1019 10 16 N/A
9:52 pm 21:52 Cloudy 54 12.2 48 8.9 80 80 N N/A 30.11 1020 9 14 N/A
10:52 pm 22:52 Cloudy 54 12.2 49 9.4 83 83 SSW 3 6 30.12 1020 10 16 N/A
11:52 pm 23:52 Cloudy 54 12.2 49 9.4 83 83 N N/A 30.11 1020 10 16 N/A

Powered by AerisWeather